[ hide orbit diagram ]
For accurate long-term ephemerides, please instead use our Horizons system.This orbit viewer was implemented using two-body methods, and hence should not be used for determining accurate long-term trajectories (over several years or decades) or planetary encounter circumstances.
Orbital Elements at Epoch 2459000.5 (2020-May-31.0) TDB
Reference: JPL 15 (heliocentric ecliptic J2000)
Element | Value | Uncertainty (1-sigma) | Units |
e | .09950007921843777 | 6.8196e-08 | |
a | 3.041880726626616 | 4.3591e-08 | au |
q | 2.739213353354228 | 2.3548e-07 | au |
i | 9.599120002822421 | 8.031e-06 | deg |
node | 228.5561447084262 | 2.3293e-05 | deg |
peri | 51.27985328194654 | 4.6679e-05 | deg |
M | 314.2241348180359 | 3.9982e-05 | deg |
tp | 2459246.902868449796 (2021-Feb-01.40286845) | 0.0002175 | TDB |
period | 1937.812257383108 5.31 | 4.1654e-05 1.14e-07 | d yr |
n | .1857765109227645 | 3.9933e-09 | deg/d |
Q | 3.344548099899003 | 4.7928e-08 | au |
|
| | Orbit Determination Parameters
Additional Information
|
[ show covariance matrix ]
Physical Parameter Table
Parameter |
Symbol |
Value |
Units |
Sigma |
Reference |
Notes |
absolute magnitude |
H |
15.9 |
|
n/a |
MPO434588 |
|
|
434883 (2006 SZ357) Discovered 2006-Sep-30 by Mt. Lemmon Survey at Mount Lemmon |
Reference: | Last Updated: 2015-06-04 |
|
[ show close-approach data ]
|